STARLINK-30518, 58029

Orbit data source: Space-Track

STARLINK-30518, 58029 is a payload satellite owned by SpaceX/Seattle (US) in LEO that was launched on Mon, 09 Oct 2023 UTC via an FALCON 9 launch vehicle from the Air Force Western Test Range (AFWTR). Payload-class satellites include a variety of spacecraft equipped with specific instruments for various scientific and technological missions. These include communications satellites like Starlink; space stations such as the ISS; scientific satellites like the Hubble; Earth observation satellites from companies like Planet Labs, Umbra, and HawkEye 360; GPS; miniature CubeSats for education and research; and military/defense satellites.

Loading next visibility...
Identifier
58029, 2023-156B
Orbit
LEO
Country
Flag of USUS
Related business
Manufacturer
SpaceX/Seattle
Mission
Operational Commercial Communications
Bus & Motor
STARLINK V2M, Unknown motor
Mass
730 kg wet, ~700 kg dry
Launch date (UTC)
2023-10-09 (2 years ago)
Launch vehicle
FALCON 9
Launch site
Air Force Western Test Range (AFWTR)
Object type
Payload
Rocket body
Debris
Shape & HBR
Box + 2 Pan, 17.7 m
Radar Cross Section
33.884 m², Large (>1 m²)

Expand to show TLE details & history
Last TLE update: 1 day ago

TLE from 1 day ago
0 STARLINK-30518
1 58029U 23156B   25348.62516113 -.00002800  00000-0 -82464-4 0  9998
2 58029  53.1599 113.3999 0000940  62.3924 297.7172 15.30195471123290
Epoch: 2025-12-14T15:00Z
TLE epoch observation values (Epoch: 2025-12-14T15:00:13.921Z)
Latitude
-0.00004°
Longitude
164.80647°
Altitude
475.829 km
Speed
7.629 km/s
True Right ascension
07h 33m 35s
True Declination
0° 00' 00"
Sunlit
Object was in full shadow at epoch
Visualization orbit readout
Latitude
Unknown
Longitude
Unknown
Altitude
Unknown
Speed
Unknown
Apparent Right ascension
Unknown
Apparent Declination
Unknown
Sunlit
N/A
Visualization observer readout
Local Sidereal Time
13:23:51
Azimuth
Unknown
Elevation
Unknown
Doppler factor
Unknown
Orbital elements
Apogee altitude
476.129 km
Perigee altitude
474.841 km
Semi-major axis
6,853.622 km
Eccentricity
0.00009
Inclination
53.1599°
RAAN
113.3999°
Arg. of periapsis
62.3924°
True anomaly
297.70766°
Mean anomaly
297.7172°
Eccentric anomaly
297.71243°
Mean motion
3.82528 °/min
Orbital period
94.11 mins
BSTAR
-0.000082464
Loading maneuver chart data...
Computing Atmospheric mass density...
Loading historical data...
Loading historical data...
Loading historical data...
Loading historical data...
Loading historical data...
Loading historical data...
Loading historical data...

Documentation

Showing up to 5 results
|